TimeEST,TemperatureF,Dew PointF,Humidity,Sea Level PressureIn,VisibilityMPH,Wind Direction,Wind SpeedMPH,Gust SpeedMPH,PrecipitationIn,Events,Conditions,WindDirDegrees,DateUTC
12:51 AM,30.9,27.0,85,30.13,10.0,Calm,Calm,-,N/A,,Clear,0,2011-11-13 05:51:00
1:51 AM,28.9,27.0,92,30.13,10.0,Calm,Calm,-,N/A,,Clear,0,2011-11-13 06:51:00
2:51 AM,30.9,27.0,85,30.13,10.0,Calm,Calm,-,N/A,,Clear,0,2011-11-13 07:51:00
3:51 AM,28.9,26.1,89,30.13,10.0,Calm,Calm,-,N/A,,Clear,0,2011-11-13 08:51:00
4:51 AM,26.1,24.1,92,30.14,9.0,Calm,Calm,-,N/A,,Clear,0,2011-11-13 09:51:00
5:51 AM,26.1,24.1,92,30.16,10.0,Calm,Calm,-,N/A,,Clear,0,2011-11-13 10:51:00
6:51 AM,27.0,25.0,92,30.15,10.0,ESE,3.5,-,N/A,,Clear,120,2011-11-13 11:51:00
7:51 AM,28.9,26.1,89,30.16,8.0,Calm,Calm,-,N/A,,Clear,0,2011-11-13 12:51:00
8:51 AM,36.0,30.0,79,30.14,9.0,Calm,Calm,-,N/A,,Partly Cloudy,0,2011-11-13 13:51:00
9:51 AM,53.6,32.0,44,30.06,10.0,SSE,8.1,-,N/A,,Scattered Clouds,160,2011-11-13 14:51:00
10:51 AM,62.1,35.1,37,30.04,10.0,South,8.1,17.3,N/A,,Partly Cloudy,170,2011-11-13 15:51:00
11:51 AM,63.0,39.0,41,30.03,10.0,South,9.2,-,N/A,,Mostly Cloudy,190,2011-11-13 16:51:00
12:51 PM,62.1,42.1,48,30.00,10.0,SSW,10.4,-,N/A,,Overcast,210,2011-11-13 17:51:00
1:51 PM,62.1,42.1,48,29.99,10.0,Variable,4.6,-,N/A,,Overcast,0,2011-11-13 18:51:00
2:51 PM,62.6,41.0,45,29.94,10.0,SSW,8.1,-,N/A,,Overcast,200,2011-11-13 19:51:00
3:51 PM,62.6,39.2,42,29.93,10.0,South,10.4,18.4,N/A,,Clear,190,2011-11-13 20:51:00
4:51 PM,61.0,37.0,41,29.96,10.0,Variable,6.9,16.1,N/A,,Clear,0,2011-11-13 21:51:00
5:51 PM,57.9,37.0,46,29.97,10.0,South,6.9,-,N/A,,Clear,170,2011-11-13 22:51:00
6:51 PM,57.0,37.0,47,29.99,10.0,South,6.9,-,N/A,,Clear,170,2011-11-13 23:51:00
7:51 PM,55.9,37.9,51,29.99,10.0,SSE,6.9,-,N/A,,Clear,160,2011-11-14 00:51:00
8:51 PM,55.9,37.9,51,29.98,10.0,SSE,8.1,-,N/A,,Clear,160,2011-11-14 01:51:00
9:51 PM,55.9,37.9,51,29.96,10.0,SSE,6.9,-,N/A,,Clear,160,2011-11-14 02:51:00
10:51 PM,55.9,37.9,51,29.96,10.0,South,6.9,-,N/A,,Clear,170,2011-11-14 03:51:00
11:51 PM,57.0,39.0,51,29.96,10.0,SSE,5.8,-,N/A,,Mostly Cloudy,160,2011-11-14 04:51:00